Location: Hurstbourne Priors
(51.2000°N, 1.3667°W)
Time: 09:59:08
(UTC+00:00)

Transit 4A - Visible Passes

Search period start: 19 April 2021 00:00
Search period end: 29 April 2021 00:00
Orbit: 869 x 975 km, 66.8° (Epoch: 18 April)

Date Brightness Start Highest point End Pass type
(mag) Time Alt. Az. Time Alt. Az. Time Alt. Az.
19 Apr 8.0 00:51:00 55° WSW 00:52:15 69° NW 00:58:19 10° NE visible
19 Apr 9.6 02:34:38 10° W 02:39:40 25° NNW 02:44:37 10° NNE visible
19 Apr 10.1 04:24:08 10° NW 04:28:10 18° N 04:32:10 10° NE visible
19 Apr 8.6 23:16:09 39° E 23:16:09 39° E 23:21:02 10° NE visible
20 Apr 8.4 00:59:37 38° W 01:01:41 53° NW 01:07:37 10° NNE visible
20 Apr 9.8 02:44:42 10° WNW 02:49:23 22° NNW 02:54:00 10° NNE visible
20 Apr 8.0 23:24:43 56° ESE 23:24:43 56° ESE 23:30:31 10° NE visible
21 Apr 8.8 01:08:10 26° W 01:11:10 42° NW 01:16:53 10° NNE visible
21 Apr 10.0 02:54:46 10° WNW 02:59:09 20° NNW 03:03:29 10° NNE visible
21 Apr 9.6 21:49:44 16° E 21:49:44 16° E 21:52:04 10° ENE visible
21 Apr 7.7 23:33:12 69° S 23:33:49 76° SE 23:39:54 10° NE visible
22 Apr 9.2 01:16:39 17° W 01:20:44 34° NNW 01:26:12 10° NNE visible
22 Apr 10.1 03:04:47 10° NW 03:08:57 19° N 03:13:03 10° NE visible
22 Apr 9.1 21:58:07 23° E 21:58:07 23° E 22:02:05 10° ENE visible
22 Apr 7.9 23:41:34 53° SW 23:43:08 82° NW 23:49:14 10° NE visible
23 Apr 9.5 01:25:07 10° W 01:30:21 28° NNW 01:35:29 10° NNE visible
23 Apr 10.2 03:14:43 10° NW 03:18:46 18° N 03:22:45 10° NE visible
23 Apr 8.6 22:06:23 33° ESE 22:06:26 33° ESE 22:11:47 10° NE visible
23 Apr 8.2 23:49:50 34° WSW 23:52:31 63° NW 23:58:32 10° NE visible
24 Apr 9.8 01:35:09 10° WNW 01:40:03 24° NNW 01:44:52 10° NNE visible
24 Apr 10.3 03:24:32 10° NW 03:28:35 18° N 03:32:34 10° NE visible
24 Apr 8.2 22:14:30 42° SE 22:15:34 46° ESE 22:21:20 10° NE visible
24 Apr 8.7 23:57:55 20° WSW 00:01:58 49° NW 00:07:50 10° NNE visible
25 Apr 10.0 01:45:13 10° WNW 01:49:47 21° NNW 01:54:16 10° NNE visible
25 Apr 10.3 03:34:13 10° NW 03:38:24 19° N 03:42:30 10° NE visible
25 Apr 9.5 20:38:57 13° ESE 20:39:32 13° ESE 20:42:08 10° ENE visible
25 Apr 7.9 22:22:22 37° S 22:24:46 63° ESE 22:30:46 10° NE visible
26 Apr 9.1 00:05:46 10° WSW 00:11:29 38° NW 00:17:06 10° NNE visible
26 Apr 10.2 01:55:17 10° WNW 01:59:34 19° NNW 02:03:46 10° NNE visible
26 Apr 10.3 03:43:47 10° NNW 03:48:11 20° NNE 03:52:30 10° ENE visible
26 Apr 9.2 20:46:30 16° SE 20:48:29 19° ESE 20:52:35 10° ENE visible
26 Apr 7.8 22:29:53 22° SSW 22:34:03 84° SE 22:40:08 10° NE visible
27 Apr 9.5 00:15:39 10° W 00:21:05 31° NNW 00:26:24 10° NNE visible
27 Apr 10.3 02:05:16 10° NW 02:09:21 18° N 02:13:23 10° NE visible
27 Apr 10.2 03:53:14 10° NNW 03:57:55 23° NNE 04:02:32 10° ENE visible
27 Apr 8.8 20:53:23 14° SSE 20:57:31 27° ESE 21:02:28 10° NE visible
27 Apr 8.0 22:37:11 10° SW 22:43:23 75° NW 22:49:27 10° NE visible
28 Apr 9.8 00:25:38 10° W 00:30:43 26° NNW 00:35:44 10° NNE visible
28 Apr 10.4 02:15:10 10° NW 02:19:10 18° N 02:23:07 10° NE visible
28 Apr 10.1 04:02:38 10° NNW 04:07:37 27° NNE 04:12:32 10° E visible
28 Apr 8.4 21:00:59 10° S 21:06:36 37° ESE 21:12:06 10° NE visible
28 Apr 8.5 22:46:43 10° SW 22:52:48 57° NW 22:58:44 10° NE visible
